Simultaneous Nadir Overpasses (SNOs) Predictions

Prediction of SNOs between LANDSAT-8 and NOAA-19 Satellite Orbit:

Table of predicted SNOs for the next 14.0 days since TLE Epoch: 10/5/2024
Index Date (LANDSAT-8) Time (LANDSAT-8) Lat,Lon (LANDSAT-8) SZA (LANDSAT-8 ) Date (NOAA-19) Time (NOAA-19) Lat,Lon (NOAA-19) SZA (NOAA-19 ) Distance(km) Time Diff (sec)
1 10/05/2024 21:13:41 -80.42, 72.96 92.79 10/05/2024 21:13:14 -80.41, 72.80 92.83 3.21 27
2 10/05/2024 22:03:06 80.45,-119.03 87.29 10/05/2024 22:04:05 80.46,-119.06 87.32 0.60 59
3 10/08/2024 03:36:52 -80.37, -23.34 92.00 10/08/2024 03:35:53 -80.37, -23.45 92.04 2.05 59
4 10/08/2024 04:26:16 80.43, 144.96 88.13 10/08/2024 04:26:43 80.44, 145.09 88.16 2.77 27
5 10/10/2024 10:49:24 80.42, 49.02 88.97 10/10/2024 10:49:21 80.42, 49.03 88.97 0.28 3
6 10/12/2024 17:12:31 80.38, -47.16 89.76 10/12/2024 17:11:59 80.37, -47.23 89.74 1.40 32
7 10/12/2024 18:01:56 -80.44, 121.10 90.12 10/12/2024 18:02:59 -80.44, 121.00 90.11 1.83 63
8 10/14/2024 23:35:36 80.34,-143.26 90.55 10/14/2024 23:34:36 80.34,-143.37 90.52 2.14 60
9 10/15/2024 00:25:00 -80.44, 25.32 89.27 10/15/2024 00:25:34 -80.43, 25.40 89.25 1.40 34



Historial Predications of SNOs between LANDSAT-8 and NOAA-19
